Orbital Elements at Epoch 2459200.5 (2020-Dec-17.0) TDB
Reference: JPL 22 (heliocentric ecliptic J2000)
Element | Value | Uncertainty (1-sigma) | Units |
e | .1964405327599298 | 5.4638e-08 | |
a | 3.157790024561017 | 3.4632e-08 | au |
q | 2.537472069792259 | 1.5792e-07 | au |
i | 28.41487474586931 | 7.6569e-06 | deg |
node | 70.19144562209092 | 1.0757e-05 | deg |
peri | 225.2310187191086 | 2.241e-05 | deg |
M | 138.1801943300289 | 2.1979e-05 | deg |
tp | 2458413.786508691679 (2018-Oct-22.28650869) | 0.00012102 | TDB |
period | 2049.619760951862 5.61 | 3.3718e-05 9.231e-08 | d yr |
n | .175642334670316 | 2.8895e-09 | deg/d |
Q | 3.778107979329774 | 4.1435e-08 | au |
|
| | Orbit Determination Parameters
Additional Information
|